MDT,Max TemperatureF,Mean TemperatureF,Min TemperatureF,Max Dew PointF,MeanDew PointF,Min DewpointF,Max Humidity, Mean Humidity, Min Humidity, Max Sea Level PressureIn, Mean Sea Level PressureIn, Min Sea Level PressureIn, Max VisibilityMiles, Mean VisibilityMiles, Min VisibilityMiles, Max Wind SpeedMPH, Mean Wind SpeedMPH, Max Gust SpeedMPH,PrecipitationIn, CloudCover, Events, WindDirDegrees
2012-7-1,101,80,59,30,20,10,14,10,5,29.89,29.67,29.60,10,10,10,23,7,31,0.00,0,,204
2012-7-2,97,85,73,38,32,27,21,16,11,29.78,29.71,29.63,10,10,10,30,9,36,0.00,0,,275
2012-7-3,99,84,68,38,33,30,25,17,9,29.75,29.68,29.60,10,10,10,23,7,29,0.00,0,,248
2012-7-4,98,84,70,47,39,33,30,22,13,29.88,29.69,29.62,10,10,10,20,6,24,0.00,1,,145
2012-7-5,81,74,66,65,57,47,73,52,30,30.08,29.85,29.69,10,10,6,20,9,24,0.03,4,Rain-Thunderstorm,125
2012-7-6,91,79,66,54,46,34,63,40,17,30.15,29.93,29.83,10,10,10,23,5,30,0.00,1,,258
2012-7-7,94,82,70,54,47,37,49,34,19,30.04,29.92,29.85,10,10,10,31,9,36,T,1,,105
2012-7-8,95,81,66,54,48,41,59,38,17,30.05,29.96,29.87,10,10,10,14,5,17,0.00,0,,71
2012-7-9,99,85,71,50,40,28,44,27,10,30.12,29.91,29.80,10,10,10,21,6,25,0.00,0,,84
2012-7-10,101,86,71,48,40,29,41,26,10,30.11,29.90,29.79,10,10,10,32,6,39,T,0,Rain-Thunderstorm,89
2012-7-11,102,86,69,46,38,30,33,22,10,30.12,29.87,29.76,10,10,10,32,6,38,0.00,0,,104
2012-7-12,101,87,72,45,38,30,35,22,9,29.91,29.83,29.73,10,10,10,20,6,26,0.00,0,,98
2012-7-13,97,84,70,62,45,29,34,25,16,30.09,29.87,29.77,10,10,10,28,6,33,0.01,3,Rain-Thunderstorm,131
2012-7-14,87,75,63,65,60,54,87,62,37,30.15,29.98,29.90,10,10,1,51,6,60,0.20,2,Rain-Thunderstorm,288
2012-7-15,90,77,64,60,55,46,87,55,23,29.99,29.88,29.78,10,10,10,28,9,33,T,2,,167
2012-7-16,89,76,62,56,51,43,78,50,21,29.97,29.86,29.72,10,9,2,39,7,48,0.00,3,,305
2012-7-17,92,76,59,52,46,38,67,42,16,29.94,29.86,29.78,10,10,10,15,5,20,0.00,0,,325
2012-7-18,98,79,60,40,36,33,40,26,11,30.01,29.85,29.77,10,10,10,21,6,32,0.00,0,,258
2012-7-19,98,82,66,49,40,33,31,21,11,30.06,29.91,29.85,10,10,10,28,7,33,T,0,Rain,114
2012-7-20,99,84,68,59,48,43,47,32,16,30.11,29.96,29.83,10,10,10,24,8,30,0.03,1,Rain-Thunderstorm,287
2012-7-21,98,82,66,63,51,41,68,42,15,30.15,29.94,29.83,10,10,10,26,5,29,0.00,0,,263
2012-7-22,95,84,72,59,50,46,46,33,19,30.19,29.98,29.86,10,10,9,29,6,39,0.01,2,Rain-Thunderstorm,2
2012-7-23,95,81,67,57,50,46,63,42,20,30.13,29.92,29.82,10,10,10,26,4,31,T,1,Thunderstorm,211
2012-7-24,88,78,68,56,54,48,57,43,29,30.09,29.89,29.80,10,10,10,29,5,33,T,2,,208
2012-7-25,95,80,64,56,47,36,67,40,13,29.91,29.83,29.74,10,10,10,18,4,25,0.00,0,,301
2012-7-26,100,81,61,43,35,27,43,26,8,29.90,29.81,29.73,10,10,10,13,3,16,0.00,0,,223
2012-7-27,94,82,70,50,44,31,41,30,18,30.17,29.90,29.77,10,10,10,35,10,43,T,1,Rain,173
2012-7-28,95,81,67,63,51,45,57,39,20,30.20,29.97,29.86,10,10,10,29,10,37,0.04,1,Rain-Thunderstorm,100
2012-7-29,83,75,66,64,60,52,87,61,34,30.24,30.04,29.96,10,10,10,21,6,23,0.04,4,Rain,319
2012-7-30,91,78,64,60,54,49,73,50,26,30.15,29.98,29.88,10,10,10,31,7,38,T,1,Rain-Thunderstorm,296
2012-7-31,95,80,64,62,55,43,73,46,18,30.20,30.03,29.86,10,10,10,36,7,43,0.05,3,Rain-Thunderstorm,287